Regional Weather Roundup
Issued by NWS

Home | Current Version | Previous Version | Text Only | Print | Product List | Glossary On
Versions: 1 2 3 4 5 6 7 8 9 10 11 12 13 14 15 16 17 18 19 20 21 22 23 24 25 26 27
000
ASPQ40 PGUM 231112
RWRPQ
WEATHER ROUNDUP FOR THE MARIANAS AND MICRONESIA
NATIONAL WEATHER SERVICE TIYAN GU
900 PM CHST THU OCT 23 2014

GUZ001>004-231200-
MARIANA ISLANDS-

CITY           SKY/WX    TMP DP  RH WIND       PRES   REMARKS
GUAM AIRPORT   MOCLDY    79  77  94 CALM      29.87R THUNDER
ANDERSEN AFB   MOCLDY    79  77  94 NE10      29.87S
ROTA AIRPORT   NOT AVBL
TINIAN AP      NOT AVBL
SAIPAN AP      PTCLDY    82  77  83 E7        29.87R HX  91

$$

PMZ161-231200-
REPUBLIC OF PALAU-

CITY           SKY/WX    TMP DP  RH WIND       PRES   REMARKS
KOROR AP       MOCLDY    77  77 100 CALM      29.83R
KOROR WSO      CLOUDY    81  79  94 CALM      29.82R

$$

PMZ171>174-231200-
FEDERATED STATES OF MICRONESIA-

CITY           SKY/WX    TMP DP  RH WIND       PRES   REMARKS
YAP AIRPORT    MOCLDY    81  77  89 VRB3      29.82R
CHUUK AP       CLOUDY    81  79  94 NW8       29.87R
POHNPEI AP     NOT AVBL
POHNPEI WSO    CLOUDY    79  77  94 SE2       29.87S
KOSRAE AP      NOT AVBL

$$

PMZ181-231200-
REPUBLIC OF THE MARSHALL ISLANDS-

CITY           SKY/WX    TMP DP  RH WIND       PRES   REMARKS
KWAJALEIN AP   PTCLDY    82  75  78 NE10      29.86S
MAJURO AP      NOT AVBL
MAJURO WSO     MOCLDY    82  77  83 VRB3      29.84S HX  91

$$




USA.gov is the U.S. government's official web portal to all federal, state and local government web resources and services.